Weather History for Beaumont, TX

Change the Weather History Date:

Tuesday, May 6, 2014

  Actual Average Record
Temperature  
Mean Temperature 74 °F 74 °F  
Max Temperature 83 °F 83 °F 90 °F (1909)
Min Temperature 64 °F 65 °F 47 °F (2013)
Degree Days  
Heating Degree Days 0 0  
Month to date heating degree days 0 0  
Since 1 July heating degree days 1710 1400  
Cooling Degree Days 9 9  
Month to date cooling degree days 25 49  
Year to date cooling degree days 226 276  
Growing Degree Days 22 (Base 50)    
Moisture  
Dew Point 61 °F    
Average Humidity 65    
Maximum Humidity 87    
Minimum Humidity 43    
Precipitation  
Precipitation 0.00 in 0.18 in 4.30 in (1912)
Month to date precipitation 0.00 0.98  
Year to date precipitation 11.03 16.56  
Snow  
Snow 0.00 in 0.00 in 0.00 in ()
Month to date snowfall 0.0 0.0  
Since 1 July snowfall 0.3 T  
Snow Depth 0.00 in    
Sea Level Pressure  
Sea Level Pressure 29.91 in    
Wind  
Wind Speed 13 mph (SSE)    
Max Wind Speed 22 mph    
Max Gust Speed 29 mph    
Visibility 10 miles    
Events      
T = Trace of Precipitation, MM = Missing Value Source: NWS Daily Summary

Daily Weather History Graph

Daily Weather History Graph

Search for Another Location

Airport:

Trip Planner

Search our weather history database for the weather conditions in past years. The results will help you decide how hot, cold, wet, or windy it might be!

Date:

Astronomy

May. 06, 2014 Rise Set
Actual Time 6:29 AM CDT 7:56 PM CDT
Civil Twilight 6:03 AM CDT 8:22 PM CDT
Nautical Twilight 5:32 AM CDT 8:53 PM CDT
Astronomical Twilight 5:01 AM CDT 9:25 PM CDT
Moon 12:40 PM CDT (5/6) 1:20 AM CDT (5/6)
Length of Visible Light 14h 18m
Length of Day
13h 27m
Waxing Crescent, 46% of the Moon is Illuminated
May 6
Waxing Crescent
May 6
First Quarter
May 14
Full
May 21
Last Quarter
May 28
New

Hourly Weather History & Observations

Time (CDT) Temp. Heat Index Dew Point Humidity Pressure Visibility Wind Dir Wind Speed Gust Speed Precip Events Conditions
12:53 AM 64.4 °F - 60.8 °F 88% 29.95 in 10.0 mi South 8.1 mph - N/A   Clear
1:53 AM 66.9 °F - 61.0 °F 81% 29.93 in 10.0 mi South 9.2 mph - N/A   Scattered Clouds
6:53 AM 71.1 °F - 57.9 °F 63% 29.92 in 10.0 mi South 11.5 mph - N/A   Overcast
7:53 AM 71.1 °F - 59.0 °F 66% 29.93 in 10.0 mi South 6.9 mph - N/A   Overcast
9:53 AM 75.0 °F - 59.0 °F 57% 29.96 in 10.0 mi South 17.3 mph 25.3 mph N/A   Overcast
10:53 AM 75.9 °F - 59.0 °F 56% 29.96 in 10.0 mi South 16.1 mph - N/A   Mostly Cloudy
11:53 AM 81.0 °F 81.0 °F 57.0 °F 44% 29.96 in 10.0 mi South 18.4 mph 27.6 mph N/A   Scattered Clouds
12:53 PM 82.0 °F 81.7 °F 57.0 °F 42% 29.95 in 10.0 mi South 18.4 mph 24.2 mph N/A   Partly Cloudy
1:53 PM 81.0 °F 81.1 °F 57.9 °F 45% 29.93 in 10.0 mi South 19.6 mph 28.8 mph N/A   Partly Cloudy
2:53 PM 81.0 °F 81.7 °F 61.0 °F 50% 29.91 in 10.0 mi South 15.0 mph 24.2 mph N/A   Scattered Clouds
3:53 PM 79.0 °F - 62.1 °F 56% 29.90 in 10.0 mi SSE 16.1 mph 25.3 mph N/A   Mostly Cloudy
4:53 PM 79.0 °F - 63.0 °F 58% 29.88 in 10.0 mi SSE 16.1 mph 23.0 mph N/A   Mostly Cloudy
5:53 PM 79.0 °F - 63.0 °F 58% 29.88 in 10.0 mi SSE 18.4 mph 21.9 mph N/A   Scattered Clouds
6:53 PM 75.9 °F - 64.0 °F 67% 29.88 in 10.0 mi South 13.8 mph - N/A   Mostly Cloudy
7:53 PM 73.0 °F - 63.0 °F 71% 29.88 in 10.0 mi SSE 13.8 mph - N/A   Partly Cloudy
8:53 PM 72.0 °F - 64.0 °F 76% 29.88 in 10.0 mi SSE 11.5 mph - N/A   Clear
9:53 PM 72.0 °F - 64.9 °F 78% 29.88 in 10.0 mi SE 13.8 mph - N/A   Clear
10:22 PM 72.0 °F - 64.9 °F 78% 29.89 in 10.0 mi SSE 15.0 mph 20.7 mph N/A   Mostly Cloudy
10:36 PM 72.0 °F - 64.9 °F 78% 29.89 in 10.0 mi SSE 15.0 mph - N/A   Scattered Clouds
10:53 PM 72.0 °F - 64.9 °F 78% 29.90 in 10.0 mi SSE 13.8 mph 21.9 mph N/A   Partly Cloudy
11:53 PM 71.1 °F - 66.0 °F 84% 29.91 in 10.0 mi SSE 12.7 mph - N/A   Clear